Date,TemperatureHighF,TemperatureAvgF,TemperatureLowF,DewpointHighF,DewpointAvgF,DewpointLowF,HumidityHigh,HumidityAvg,HumidityLow,PressureMaxIn,PressureMinIn,WindSpeedMaxMPH,WindSpeedAvgMPH,GustSpeedMaxMPH,PrecipitationSumIn
2013-1-1,21.0,16.6,9.0,19.0,11.9,5.0,90,81,70,30.27,30.14,8,3,14,0.01
2013-1-2,24.0,14.6,6.0,18.0,10.0,3.0,86,82,73,30.31,30.21,9,4,14,0.00
2013-1-3,31.0,23.5,15.0,27.0,19.6,11.0,92,85,79,30.38,30.21,9,4,16,0.01
2013-1-4,32.0,21.3,10.0,26.0,17.1,7.0,88,83,75,30.38,30.31,12,5,20,0.01
2013-1-5,35.0,28.0,17.0,32.0,25.3,14.0,95,89,81,30.33,30.06,11,4,17,0.03
2013-1-6,35.0,26.7,17.0,32.0,23.1,14.0,92,86,81,30.40,30.02,10,5,19,0.01
2013-1-7,36.0,25.3,14.0,30.0,22.1,12.0,94,88,77,30.42,30.19,12,6,21,0.00
2013-1-8,42.0,32.0,24.0,36.0,28.8,22.0,93,88,79,30.23,30.13,9,5,15,0.00
2013-1-9,48.0,39.4,32.0,38.0,32.5,25.0,90,77,56,30.53,30.13,10,4,19,0.00
2013-1-10,48.0,36.1,29.0,47.0,32.2,25.0,98,86,68,30.53,29.86,14,7,19,0.47
2013-1-11,55.0,49.8,46.0,52.0,48.1,45.0,98,94,86,29.86,29.74,12,8,19,0.56
2013-1-12,52.0,43.6,29.0,49.0,40.4,27.0,95,89,74,29.97,29.78,12,6,20,0.18
2013-1-13,29.0,22.4,14.0,28.0,19.9,11.0,95,90,83,30.34,29.88,0,0,0,0.18
2013-1-14,23.0,17.1,13.0,18.0,13.7,10.0,88,86,80,30.52,30.34,5,1,10,0.00
2013-1-15,28.0,21.0,13.0,24.0,17.8,10.0,92,87,80,30.48,30.17,7,2,12,0.00
2013-1-16,36.0,28.1,17.0,29.0,23.2,14.0,92,82,70,30.17,29.96,13,4,20,0.01
2013-1-17,35.0,29.4,21.0,30.0,23.9,17.0,94,80,63,30.47,30.11,11,5,20,0.01
2013-1-18,41.0,30.5,20.0,33.0,25.2,17.0,89,81,68,30.50,30.08,17,9,27,0.01
2013-1-19,51.0,40.8,34.0,40.0,33.8,28.0,85,76,62,30.08,29.84,15,9,27,0.01
2013-1-20,36.0,20.6,15.0,29.0,12.2,8.0,83,70,57,30.35,30.02,12,5,26,0.00
2013-1-21,18.0,11.0,5.0,14.0,2.5,-3.0,85,69,49,30.40,30.24,12,7,24,0.00
2013-1-22,15.0,8.8,2.0,2.0,-1.3,-3.0,80,64,45,30.50,30.39,8,4,15,0.00
2013-1-23,32.0,19.1,9.0,17.0,8.9,2.0,76,64,53,30.43,30.16,12,4,22,0.00
2013-1-24,23.0,15.8,6.0,11.0,5.5,-1.0,80,64,50,30.67,30.36,11,7,22,0.00
2013-1-25,34.0,24.7,18.0,22.0,16.5,7.0,90,72,53,30.40,30.06,10,6,20,0.00
2013-1-26,31.0,21.7,13.0,19.0,12.9,8.0,83,69,47,30.44,30.22,7,3,12,0.00
2013-1-27,41.0,29.4,22.0,39.0,25.9,17.0,98,87,76,30.41,29.98,17,10,25,0.24
2013-1-28,53.0,48.5,40.0,53.0,47.5,39.0,99,98,97,30.00,29.85,10,6,17,0.08
2013-1-29,61.0,56.6,50.0,59.0,55.5,48.0,99,96,92,29.86,29.42,17,10,26,1.12
2013-1-30,50.0,37.4,21.0,49.0,35.3,17.0,99,93,83,29.73,29.28,15,9,32,1.14
2013-1-31,21.0,14.4,6.0,17.0,8.5,-1.0,84,77,70,30.29,29.73,14,9,26,0.03
2013-2-1,20.0,11.1,3.0,16.0,4.7,-3.0,85,75,65,30.49,30.25,11,7,20,0.00
2013-2-2,27.0,20.3,11.0,24.0,17.2,8.0,93,88,81,30.26,30.06,12,5,17,0.00
2013-2-3,26.0,21.3,13.0,21.0,16.8,10.0,95,83,63,30.15,30.03,11,4,20,0.00
2013-2-4,37.0,28.4,21.0,30.0,24.4,17.0,93,85,74,30.09,29.83,10,6,17,0.00
2013-2-5,38.0,29.2,20.0,33.0,26.2,18.0,94,89,80,30.12,29.85,11,4,24,0.00
2013-2-6,41.0,34.1,29.0,34.0,30.4,27.0,94,86,73,30.26,30.11,11,4,16,0.00
2013-2-7,41.0,35.1,32.0,40.0,33.3,30.0,97,93,86,30.14,29.86,11,6,20,0.25
2013-2-8,33.0,28.2,24.0,32.0,25.6,22.0,95,90,86,30.42,29.98,13,7,23,0.12
2013-2-9,35.0,30.9,28.0,32.0,27.6,24.0,90,87,85,30.41,30.09,11,7,16,0.00
2013-2-10,49.0,40.5,34.0,47.0,38.5,30.0,97,93,79,30.11,29.59,23,13,35,0.54
2013-2-11,43.0,34.7,28.0,36.0,27.9,24.0,87,76,67,30.12,29.63,15,9,31,0.02
2013-2-12,34.0,28.5,24.0,28.0,25.2,22.0,93,87,78,30.17,29.97,5,2,11,0.00
2013-2-13,46.0,34.3,26.0,36.0,29.5,24.0,95,83,63,29.97,29.78,9,3,18,0.00
2013-2-14,42.0,36.0,33.0,35.0,31.5,28.0,92,84,73,30.03,29.76,12,5,22,0.00
2013-2-15,33.0,29.3,22.0,31.0,22.3,16.0,92,76,52,30.24,30.02,10,5,17,0.00
2013-2-16,27.0,20.2,14.0,16.0,12.5,8.0,82,72,57,30.24,30.17,9,5,18,0.00
2013-2-17,34.0,23.0,11.0,26.0,16.2,6.0,84,75,63,30.27,30.03,14,5,21,0.00
2013-2-18,53.0,39.3,28.0,46.0,34.6,23.0,96,84,75,30.03,29.52,20,13,34,0.31
2013-2-19,27.0,20.3,16.0,24.0,13.9,9.0,88,76,68,30.27,29.72,16,11,31,0.31
2013-2-20,24.0,16.0,7.0,17.0,10.2,2.0,90,78,64,30.44,30.27,9,5,17,0.00
2013-2-21,28.0,22.7,15.0,26.0,19.9,12.0,95,89,82,30.41,29.91,24,10,33,0.00
2013-2-22,33.0,29.8,26.0,32.0,27.9,22.0,98,93,84,30.02,29.84,14,7,25,0.03
2013-2-23,26.0,23.6,19.0,23.0,19.5,16.0,91,84,77,30.05,30.00,7,3,14,0.01
2013-2-24,37.0,27.3,18.0,30.0,23.3,15.0,92,85,74,30.19,30.04,4,1,7,0.00
2013-2-25,42.0,34.0,27.0,36.0,29.9,24.0,91,85,77,30.17,29.85,15,7,23,0.00
2013-2-26,34.0,32.3,32.0,32.0,30.5,29.0,97,93,84,29.86,29.44,20,5,31,0.66
2013-2-27,32.0,31.3,30.0,31.0,29.9,29.0,97,95,92,29.78,29.54,7,2,16,0.28
2013-2-28,34.0,31.9,30.0,31.0,30.2,28.0,96,93,87,30.09,29.78,10,6,16,0.04
2013-3-1,30.0,27.1,24.0,29.0,25.0,21.0,96,92,88,30.21,30.07,9,6,16,0.03
2013-3-2,29.0,23.8,16.0,23.0,19.4,11.0,90,83,70,30.24,30.18,9,6,17,0.01
2013-3-3,31.0,21.4,12.0,19.0,13.5,9.0,87,72,46,30.22,30.14,4,1,9,0.00
2013-3-4,33.0,29.3,21.0,30.0,24.9,15.0,89,84,76,30.16,29.93,20,11,25,0.00
2013-3-5,33.0,31.2,27.0,32.0,29.5,26.0,97,93,86,30.01,29.80,14,7,23,0.16
2013-3-6,30.0,27.1,25.0,28.0,25.7,24.0,96,94,92,30.37,30.00,14,8,24,0.05
2013-3-7,35.0,28.5,25.0,30.0,25.5,23.0,94,89,80,30.46,30.36,5,2,11,0.01
2013-3-8,38.0,30.7,21.0,33.0,27.5,19.0,94,88,80,30.50,30.32,12,5,16,0.01
2013-3-9,44.0,38.1,33.0,40.0,34.7,30.0,91,87,83,30.32,29.85,13,10,20,0.02
2013-3-10,55.0,48.0,43.0,51.0,45.2,39.0,97,90,83,29.85,29.58,17,7,23,0.37
2013-3-11,48.0,37.1,31.0,47.0,35.3,28.0,97,93,87,29.90,29.62,12,8,22,0.06
2013-3-12,38.0,31.3,27.0,33.0,26.8,21.0,93,83,71,30.12,29.90,11,7,23,0.02
2013-3-13,35.0,27.5,23.0,24.0,21.0,19.0,87,77,62,30.39,30.12,10,6,20,0.01
2013-3-14,38.0,30.6,23.0,32.0,26.0,20.0,93,83,71,30.40,30.14,11,4,18,0.00
2013-3-15,52.0,40.3,30.0,47.0,36.7,28.0,95,88,74,30.15,29.68,14,4,17,0.00
2013-3-16,44.0,35.3,30.0,41.0,32.9,27.0,97,91,82,30.12,29.65,11,6,21,0.00
2013-3-17,37.0,32.2,29.0,32.0,28.0,25.0,90,84,79,30.19,29.93,15,10,23,0.00
2013-3-18,38.0,32.2,25.0,35.0,29.7,17.0,97,91,76,29.94,29.68,15,7,28,0.05
2013-3-19,39.0,28.7,20.0,22.0,17.3,12.0,78,63,41,30.18,29.93,15,8,28,0.01
2013-3-20,30.0,23.8,17.0,21.0,12.6,7.0,80,63,45,30.19,30.10,13,7,24,0.00
2013-3-21,34.0,23.5,13.0,20.0,13.2,9.0,84,66,44,30.14,30.04,8,3,15,0.00
2013-3-22,43.0,31.2,19.0,26.0,20.0,15.0,87,65,38,30.11,30.03,5,1,10,0.00
2013-3-23,46.0,36.3,30.0,31.0,26.3,24.0,84,68,50,30.12,29.97,10,5,19,0.00
2013-3-24,31.0,29.3,28.0,29.0,27.9,25.0,97,94,79,29.98,29.61,15,10,24,0.00
2013-3-25,34.0,29.5,26.0,31.0,27.4,25.0,97,92,85,30.14,29.71,13,9,23,0.04
2013-3-26,37.0,32.9,30.0,29.0,27.1,24.0,87,79,59,30.32,30.14,7,4,14,0.01
2013-3-27,41.0,34.6,30.0,29.0,25.4,23.0,84,70,52,30.39,30.32,6,2,12,0.00
2013-3-28,47.0,36.5,26.0,37.0,28.0,21.0,84,72,53,30.41,30.32,6,1,13,0.00
2013-3-29,55.0,42.8,33.0,40.0,33.9,28.0,88,72,47,30.34,30.24,5,1,10,0.00
2013-3-30,54.0,45.1,34.0,44.0,37.3,-99.9,89,77,63,30.24,29.91,13,4,19,0.00
2013-3-31,60.0,49.1,39.0,47.0,41.3,32.0,95,76,49,29.91,29.78,11,6,26,0.00
2013-4-1,42.0,35.6,29.0,32.0,22.9,19.0,82,61,40,30.23,29.91,12,6,19,0.00
2013-4-2,45.0,33.8,24.0,22.0,18.4,14.0,81,56,29,30.35,30.23,9,4,19,0.00
2013-4-3,48.0,36.2,24.0,24.0,21.2,18.0,80,57,34,30.47,30.34,11,4,21,0.00
2013-4-4,57.0,43.0,28.0,27.0,23.8,21.0,78,50,26,30.34,30.03,6,1,11,0.00
2013-4-5,57.0,45.1,35.0,35.0,28.2,21.0,82,55,27,30.19,30.03,11,6,18,0.00
2013-4-6,71.0,53.6,36.0,47.0,35.2,24.0,73,52,29,30.11,29.70,22,13,35,0.14
2013-4-7,70.0,56.7,43.0,47.0,44.0,40.0,91,65,37,29.94,29.72,12,3,20,0.14
2013-4-8,72.0,61.9,51.0,59.0,54.2,41.0,91,77,59,29.90,29.69,18,8,28,0.03
2013-4-9,76.0,66.2,56.0,62.0,58.2,53.0,91,76,58,29.90,29.79,22,8,33,0.02
2013-4-10,66.0,51.7,42.0,61.0,49.5,41.0,97,93,81,29.88,29.68,15,7,27,1.20
2013-4-11,51.0,45.6,38.0,50.0,43.8,34.0,98,94,84,29.81,29.60,14,6,23,1.01
2013-4-12,41.0,38.3,36.0,37.0,34.3,31.0,88,85,81,29.95,29.65,13,6,26,0.01
2013-4-13,49.0,41.8,35.0,39.0,33.5,27.0,89,73,56,30.03,29.94,10,5,21,0.00
2013-4-14,71.0,55.5,41.0,56.0,46.7,37.0,90,74,50,30.00,29.67,18,10,27,0.00
2013-4-15,61.0,54.2,45.0,58.0,51.2,43.0,96,90,70,29.98,29.71,16,8,25,0.27
2013-4-16,52.0,46.0,41.0,46.0,42.7,39.0,96,88,73,30.22,29.91,10,6,17,1.11
2013-4-17,64.0,49.3,43.0,63.0,46.9,39.0,97,91,83,30.23,29.76,16,10,24,0.21
2013-4-18,66.0,56.6,42.0,64.0,55.1,36.0,98,95,83,29.76,29.48,18,8,30,1.52
2013-4-19,41.0,36.8,34.0,37.0,31.9,29.0,93,82,75,30.02,29.60,13,8,29,0.18
2013-4-20,46.0,38.1,31.0,35.0,30.0,27.0,86,73,51,30.42,30.02,6,3,12,0.07
2013-4-21,53.0,42.6,33.0,43.0,35.6,29.0,87,77,61,30.51,30.34,14,8,21,0.00
2013-4-22,65.0,52.0,39.0,48.0,41.5,34.0,84,69,47,30.34,30.05,12,6,19,0.00
2013-4-23,58.0,49.2,38.0,52.0,45.7,37.0,96,88,75,30.05,29.86,11,6,21,0.51
2013-4-24,48.0,40.4,34.0,37.0,34.0,31.0,95,79,55,30.22,29.94,10,6,18,0.31
2013-4-25,53.0,44.5,37.0,36.0,32.1,28.0,83,63,42,30.35,30.16,12,5,26,0.02
2013-4-26,63.0,49.9,37.0,50.0,41.7,33.0,87,74,57,30.39,30.29,13,6,22,0.00
2013-4-27,63.0,52.3,43.0,51.0,46.9,41.0,96,83,57,30.32,29.97,14,5,21,0.22
2013-4-28,61.0,54.8,52.0,56.0,52.8,51.0,98,94,81,29.97,29.85,7,2,13,0.42
2013-4-29,70.0,58.8,46.0,61.0,54.3,45.0,98,86,69,29.95,29.78,14,7,22,0.01
2013-4-30,81.0,67.7,56.0,64.0,58.8,53.0,93,75,49,29.95,29.81,13,8,19,0.01
2013-5-1,82.0,68.6,56.0,62.0,57.0,53.0,92,69,41,30.10,29.94,11,3,18,0.00
2013-5-2,75.0,63.3,47.0,61.0,55.3,45.0,93,76,59,30.13,30.02,10,4,18,0.53
2013-5-3,67.0,54.8,42.0,62.0,51.7,40.0,97,90,78,30.07,29.83,22,9,34,0.54
2013-5-4,62.0,58.3,54.0,57.0,54.8,52.0,94,88,74,30.01,29.86,13,8,18,0.21
2013-5-5,68.0,58.1,52.0,57.0,53.3,51.0,97,85,63,30.01,29.92,15,5,21,0.03
2013-5-6,71.0,61.2,53.0,56.0,52.5,48.0,91,74,52,29.99,29.92,12,4,20,0.01
2013-5-7,76.0,63.9,52.0,56.0,48.4,41.0,79,59,36,30.03,29.95,9,2,14,0.00
2013-5-8,78.0,67.5,53.0,57.0,50.0,46.0,80,56,34,30.02,29.94,5,1,10,0.00
2013-5-9,66.0,61.7,58.0,62.0,57.7,50.0,96,87,61,29.99,29.81,12,4,20,0.32
2013-5-10,62.0,53.8,48.0,60.0,50.6,-99.9,97,93,88,29.97,29.80,8,4,16,0.01
2013-5-11,61.0,51.6,44.0,53.0,40.2,-99.9,95,70,37,30.09,29.91,13,5,25,0.01
2013-5-12,56.0,47.1,38.0,33.0,30.0,26.0,72,53,33,30.18,30.09,11,4,27,0.00
2013-5-13,66.0,54.1,40.0,44.0,34.2,30.0,71,50,28,30.22,30.06,7,3,14,0.00
2013-5-14,88.0,69.0,50.0,63.0,53.6,42.0,77,60,40,30.06,29.72,14,8,21,0.00
2013-5-15,83.0,75.1,68.0,63.0,57.0,52.0,65,54,41,29.82,29.73,10,5,21,0.00
2013-5-16,82.0,66.3,61.0,61.0,37.2,-99.9,91,63,37,29.92,29.79,7,3,26,0.17
2013-5-17,80.0,69.4,59.0,64.0,56.0,-99.9,95,74,39,29.98,29.91,13,4,18,0.00
2013-5-18,81.0,70.7,62.0,64.0,61.5,59.0,93,75,52,30.02,29.90,11,5,16,0.00
2013-5-19,90.0,75.6,60.0,71.0,64.8,58.0,95,72,46,29.92,29.72,19,7,24,0.00
2013-5-20,86.0,75.8,64.0,69.0,63.2,59.0,92,67,42,29.82,29.69,18,9,28,0.30
2013-5-21,78.0,69.6,62.0,69.0,64.3,59.0,93,84,67,29.78,29.65,15,9,24,0.56
2013-5-22,72.0,66.3,60.0,66.0,60.2,55.0,95,82,59,29.78,29.61,12,6,19,0.03
2013-5-23,60.0,55.6,44.0,57.0,51.4,39.0,95,86,72,30.25,29.78,10,5,17,0.03
2013-5-24,67.0,52.0,38.0,41.0,37.6,34.0,89,62,33,30.42,30.25,11,4,16,0.01
2013-5-25,57.0,50.9,46.0,50.0,40.3,31.0,93,68,41,30.40,30.24,10,4,15,0.47
2013-5-26,63.0,55.5,50.0,59.0,51.7,45.0,90,87,81,30.27,30.05,15,8,23,0.41
2013-5-27,71.0,62.0,56.0,67.0,60.1,55.0,96,93,84,30.13,29.81,14,6,21,0.42
2013-5-28,78.0,68.8,62.0,72.0,65.5,60.0,95,89,79,29.87,29.76,19,8,27,0.19
2013-5-29,82.0,72.8,63.0,72.0,66.0,60.0,95,80,63,29.95,29.85,14,7,25,0.22
2013-5-30,83.0,73.7,64.0,72.0,66.9,62.0,94,80,61,29.92,29.79,18,10,32,0.23
2013-5-31,75.0,68.9,62.0,71.0,66.0,60.0,95,90,81,29.87,29.72,14,8,32,1.47
2013-6-1,72.0,65.8,61.0,68.0,62.8,58.0,95,90,83,29.79,29.64,19,9,26,1.24
2013-6-2,62.0,58.7,52.0,59.0,55.7,49.0,95,90,83,30.04,29.78,7,4,16,0.12
2013-6-3,65.0,57.3,48.0,52.0,48.9,45.0,91,75,53,30.13,30.03,7,2,14,0.01
2013-6-4,73.0,62.6,51.0,57.0,51.1,45.0,84,67,48,30.14,30.04,11,4,16,0.00
2013-6-5,78.0,68.0,55.0,59.0,55.2,52.0,90,65,45,30.04,29.85,7,2,11,0.00
2013-6-6,75.0,66.3,59.0,60.0,55.4,49.0,86,69,54,29.87,29.80,9,3,15,0.00
2013-6-7,72.0,62.8,53.0,57.0,52.2,48.0,86,70,52,29.92,29.85,6,3,14,0.00
2013-6-8,77.0,65.9,51.0,57.0,49.8,43.0,76,57,43,29.97,29.91,5,1,17,0.00
2013-6-9,81.0,70.8,61.0,63.0,57.8,53.0,92,66,40,29.97,29.77,13,5,22,0.00
2013-6-10,79.0,68.8,60.0,64.0,60.6,58.0,95,77,52,29.87,29.73,7,2,14,0.02
2013-6-11,84.0,74.3,62.0,71.0,64.0,58.0,89,72,51,29.93,29.80,10,3,17,0.02
2013-6-12,93.0,82.5,73.0,73.0,70.0,67.0,87,68,45,29.86,29.57,14,5,28,0.00
2013-6-13,82.0,72.8,64.0,71.0,60.1,53.0,93,67,43,29.98,29.61,10,4,22,0.02
2013-6-14,80.0,68.2,55.0,57.0,53.7,51.0,86,62,40,30.10,29.95,5,2,11,0.02
2013-6-15,79.0,70.5,64.0,65.0,59.7,56.0,85,69,54,30.05,29.93,11,4,20,0.01
2013-6-26,82.0,79.2,75.0,75.0,73.2,70.0,93,82,75,29.75,29.69,8,2,13,0.01
2013-6-27,87.0,78.4,71.0,75.0,70.8,66.0,97,79,57,29.80,29.70,8,3,16,0.01
2013-6-28,82.0,74.2,66.0,67.0,63.7,58.0,88,71,46,29.75,29.61,9,4,20,0.02
2013-6-29,70.0,65.8,62.0,66.0,62.7,59.0,95,90,80,29.72,29.59,5,2,14,0.30
2013-6-30,73.0,66.2,60.0,64.0,59.4,49.0,94,80,58,29.92,29.72,11,4,20,0.06
2013-7-1,75.0,66.9,59.0,62.0,56.8,49.0,84,71,58,30.00,29.91,10,4,20,0.01
2013-7-2,69.0,63.8,60.0,61.0,58.1,55.0,92,82,74,30.03,29.97,7,3,15,0.01
2013-7-3,75.0,63.8,58.0,62.0,59.1,55.0,96,85,59,30.07,29.99,3,1,7,0.02
2013-7-4,79.0,68.6,56.0,67.0,61.2,54.0,96,79,58,30.10,30.02,5,2,12,0.02
2013-7-5,80.0,70.5,60.0,70.0,64.8,58.0,98,83,61,30.08,30.00,5,1,11,0.01
2013-7-6,78.0,70.3,65.0,70.0,66.9,64.0,97,89,72,30.05,29.97,4,1,9,0.01
2013-7-7,85.0,74.5,65.0,75.0,68.5,63.0,95,83,66,30.02,29.95,7,3,15,0.00
2013-7-8,85.0,75.2,71.0,76.0,69.6,-99.9,93,85,61,30.05,29.95,9,3,16,0.04
2013-7-9,88.0,79.1,73.0,77.0,74.1,71.0,95,85,68,29.99,29.86,5,2,11,0.02
2013-7-10,83.0,74.9,65.0,75.0,68.4,-99.9,96,83,65,29.98,29.81,8,3,17,1.36
2013-7-11,78.0,68.1,57.0,64.0,60.4,54.0,95,78,52,30.06,29.97,4,1,10,0.01
2013-7-12,81.0,68.6,55.0,68.0,57.9,52.0,94,72,41,30.13,30.04,2,0,6,0.01
2013-7-13,82.0,70.6,56.0,69.0,63.4,55.0,98,79,60,30.12,30.05,2,0,8,0.00
2013-7-14,86.0,75.3,62.0,75.0,69.2,61.0,97,82,65,30.16,30.08,4,1,8,0.00
2013-7-15,88.0,77.6,69.0,78.0,72.7,68.0,97,86,70,30.23,30.15,3,0,8,0.00
2013-7-16,88.0,78.7,68.0,77.0,72.2,67.0,98,82,61,30.29,30.23,5,1,10,0.00
2013-7-17,90.0,79.2,68.0,78.0,72.5,67.0,98,81,60,30.30,30.16,2,0,7,0.00
2013-7-18,90.0,81.0,70.0,79.0,74.4,68.0,96,81,63,30.18,29.98,5,1,12,0.00
2013-7-19,90.0,81.9,74.0,78.0,74.5,71.0,93,79,62,29.98,29.80,7,3,16,0.00
2013-7-20,85.0,78.7,68.0,74.0,70.3,65.0,92,76,55,29.90,29.79,6,1,13,0.00
2013-7-21,78.0,72.1,64.0,73.0,69.3,63.0,98,91,81,29.93,29.83,4,1,8,0.03
2013-7-22,84.0,74.7,65.0,72.0,68.4,64.0,97,82,61,29.85,29.75,4,1,11,0.05
2013-7-23,80.0,71.8,62.0,71.0,65.5,58.0,96,81,62,29.93,29.72,8,3,16,0.03
2013-7-24,75.0,63.8,54.0,59.0,54.7,51.0,93,74,49,30.04,29.92,4,1,11,0.00
2013-7-25,80.0,64.7,50.0,62.0,55.9,48.0,97,76,49,30.11,30.03,3,0,8,0.00
2013-7-26,71.0,65.3,58.0,67.0,61.7,56.0,94,88,77,30.06,29.90,8,2,15,0.05
2013-7-27,69.0,61.3,51.0,61.0,53.6,46.0,93,77,53,29.96,29.89,8,3,17,0.02
2013-7-28,71.0,60.7,49.0,55.0,51.1,46.0,91,72,53,30.04,29.93,7,2,17,0.00
2013-7-29,76.0,62.8,51.0,60.0,53.8,48.0,94,75,47,30.16,30.04,4,1,9,0.00
2013-7-30,67.0,64.0,57.0,66.0,62.1,55.0,96,94,85,30.15,30.03,4,1,12,0.25
2013-7-31,74.0,68.3,64.0,71.0,66.1,63.0,98,93,82,30.04,29.96,6,1,12,0.07
2013-8-1,80.0,70.2,61.0,66.0,60.9,56.0,97,75,46,30.02,29.96,8,2,18,0.01
2013-8-2,80.0,71.3,60.0,72.0,65.7,58.0,94,83,68,29.96,29.88,7,3,14,0.11
2013-8-3,79.0,70.7,60.0,68.0,62.7,56.0,96,78,53,30.10,29.92,6,2,12,0.21
2013-8-4,80.0,67.0,53.0,63.0,58.0,52.0,98,75,47,30.16,30.08,3,0,7,0.00
2013-8-5,75.0,66.6,54.0,65.0,60.4,53.0,98,81,63,30.09,29.88,6,2,13,0.00
2013-8-6,83.0,72.3,65.0,74.0,68.1,63.0,95,87,71,29.91,29.83,5,1,10,0.00
2013-8-7,82.0,73.1,69.0,76.0,70.6,68.0,98,92,81,29.88,29.80,5,2,10,0.01
2013-8-8,81.0,71.4,65.0,71.0,66.2,58.0,97,84,71,29.96,29.88,3,1,9,0.01
2013-8-9,81.0,69.9,58.0,66.0,61.5,55.0,93,76,57,30.04,29.95,3,0,9,0.00
2013-8-10,80.0,71.9,65.0,66.0,62.3,58.0,92,73,51,30.10,30.03,6,2,12,0.00
2013-8-11,82.0,70.4,58.0,67.0,60.6,54.0,90,73,53,30.13,30.04,3,1,7,0.00
2013-8-12,82.0,71.7,61.0,71.0,65.9,59.0,96,83,64,30.06,29.87,6,1,10,0.34
2013-8-13,73.0,63.8,50.0,66.0,55.3,-99.9,96,78,49,30.13,29.89,6,2,15,0.35
2013-8-14,72.0,58.2,47.0,58.0,49.4,-99.9,97,79,51,30.22,30.13,3,0,9,0.00
2013-8-15,74.0,56.9,51.0,59.0,41.3,-99.9,96,74,49,30.19,30.09,2,0,5,0.00
2013-8-16,79.0,65.2,55.0,62.0,53.5,-99.9,93,72,48,30.16,30.11,3,0,8,0.00
2013-8-17,79.0,64.6,52.0,61.0,54.7,-99.9,97,75,50,30.21,30.14,3,0,9,0.00
2013-8-18,83.0,68.1,55.0,66.0,59.3,53.0,95,76,47,30.17,30.08,3,0,8,0.00
2013-8-19,83.0,66.3,57.0,68.0,51.5,-99.9,98,78,55,30.12,30.03,4,0,7,0.00
2013-8-20,84.0,70.9,58.0,69.0,62.7,-99.9,98,80,55,30.12,30.03,5,1,10,0.00
2013-8-21,86.0,73.7,63.0,72.0,66.7,61.0,97,80,53,30.10,29.99,6,1,12,0.00
2013-8-22,80.0,71.7,67.0,72.0,67.4,66.0,95,86,70,30.10,30.00,10,1,17,0.16
2013-8-23,85.0,71.9,62.0,70.0,65.5,58.0,98,82,53,30.13,30.06,3,0,10,0.01
2013-8-24,86.0,69.9,56.0,69.0,61.4,-99.9,98,79,53,30.23,30.12,5,1,11,0.00
2013-8-25,86.0,73.0,60.0,67.0,62.8,57.0,91,72,48,30.25,30.16,5,2,14,0.00
2013-8-26,88.0,76.4,65.0,74.0,68.7,62.0,95,79,56,30.18,30.01,5,2,11,0.00
2013-8-27,89.0,77.4,71.0,76.0,71.5,69.0,92,83,61,30.02,29.93,7,2,13,0.00
2013-8-28,91.0,84.8,71.0,78.0,74.0,68.0,91,71,61,29.98,29.90,6,2,12,0.00
2013-8-29,87.0,74.8,67.0,74.0,69.8,63.0,97,86,59,30.04,29.96,1,0,5,0.00
2013-8-30,93.0,77.8,64.0,78.0,70.0,61.0,98,79,53,29.96,29.77,7,2,14,0.00
2013-8-31,94.0,75.8,65.0,78.0,67.5,-99.9,96,78,59,29.83,29.68,6,1,14,0.05
2013-9-1,83.0,73.2,68.0,74.0,69.6,66.0,98,89,69,29.79,29.73,5,1,13,0.05
2013-9-2,81.0,70.3,61.0,66.0,61.9,58.0,93,76,49,29.95,29.78,6,3,14,0.00
2013-9-3,76.0,63.7,52.0,60.0,56.2,51.0,98,79,52,30.09,29.95,4,0,10,0.01
2013-9-4,83.0,67.4,53.0,62.0,57.1,51.0,97,73,41,30.15,30.05,4,1,10,0.01
2013-9-5,87.0,72.3,60.0,68.0,61.5,56.0,89,71,49,30.18,30.11,4,0,8,0.00
2013-9-6,86.0,70.9,56.0,67.0,60.9,53.0,91,72,51,30.17,30.02,5,1,11,0.00
2013-9-7,86.0,73.0,63.0,67.0,62.5,-99.9,93,73,47,30.02,29.90,8,1,14,0.00
2013-9-8,88.0,76.7,69.0,71.0,68.2,66.0,92,76,53,29.95,29.87,4,0,7,0.00
2013-9-9,94.0,79.4,68.0,75.0,70.4,66.0,97,77,50,29.91,29.84,8,3,14,0.00
2013-9-10,95.0,81.6,69.0,71.0,67.9,65.0,90,66,39,30.02,29.91,8,2,15,0.00
2013-9-11,93.0,80.3,68.0,70.0,66.6,60.0,93,67,34,30.06,29.97,7,2,16,0.00
2013-9-12,82.0,72.1,59.0,69.0,61.0,47.0,95,71,32,30.04,29.92,11,3,24,0.19
2013-9-13,70.0,59.3,50.0,52.0,48.0,43.0,94,69,39,30.15,30.03,6,2,15,0.01
2013-9-14,73.0,55.1,40.0,49.0,41.5,-99.9,97,67,33,30.19,30.05,4,1,15,0.00
2013-9-15,72.0,57.9,49.0,60.0,51.3,44.0,95,80,52,30.11,29.98,7,2,13,0.06
2013-9-16,72.0,60.7,51.0,56.0,52.9,47.0,96,78,52,30.30,30.11,5,2,12,0.05
2013-9-17,76.0,59.7,46.0,57.0,51.2,44.0,96,76,46,30.30,30.10,4,1,11,0.00
2013-9-18,71.0,63.2,61.0,68.0,56.4,53.0,90,78,73,30.10,29.95,4,1,8,0.00
2013-9-19,91.0,78.3,69.0,71.0,69.2,67.0,95,76,50,29.96,29.79,9,5,21,0.01
2013-9-20,77.0,67.2,57.0,71.0,62.8,51.0,97,86,69,29.85,29.79,10,2,22,0.42
2013-9-21,68.0,58.2,50.0,53.0,47.8,-99.9,94,72,47,29.93,29.83,9,3,16,0.01
2013-9-22,73.0,56.9,42.0,50.0,46.5,40.0,97,72,40,30.04,29.93,3,0,9,0.00
2013-9-23,77.0,58.3,43.0,50.0,46.0,41.0,95,69,33,30.08,29.98,4,0,8,0.00
2013-9-24,78.0,60.4,45.0,57.0,50.4,43.0,96,73,42,30.01,29.87,5,1,18,0.01
2013-9-25,81.0,65.3,49.0,59.0,53.1,46.0,93,67,42,29.92,29.85,3,0,11,0.01
2013-9-26,81.0,63.8,49.0,55.0,49.8,44.0,96,66,28,30.05,29.92,4,1,10,0.00
2013-9-27,82.0,64.8,50.0,57.0,50.4,47.0,91,64,30,30.14,30.03,10,3,15,0.00
2013-9-28,84.0,69.2,54.0,62.0,54.9,-99.9,91,64,42,30.07,29.91,15,6,25,0.00
2013-9-29,70.0,61.0,51.0,63.0,51.5,45.0,97,74,42,30.03,29.93,9,3,15,0.25
2013-9-30,76.0,57.0,46.0,56.0,50.7,44.0,96,82,45,30.01,29.88,8,2,14,0.01
2013-10-1,69.0,65.7,64.0,65.0,63.5,62.0,96,92,86,29.98,29.95,6,4,14,0.00
2013-10-2,79.0,69.0,64.0,68.0,65.4,63.0,98,89,66,30.06,29.96,10,3,14,0.01
2013-10-3,83.0,69.6,64.0,70.0,66.2,62.0,98,90,60,29.96,29.83,13,5,19,1.34
2013-10-4,85.0,72.3,63.0,71.0,66.3,61.0,96,83,57,29.97,29.89,8,4,15,0.63
2013-10-5,76.0,70.2,62.0,72.0,67.8,56.0,98,92,77,29.93,29.76,7,4,17,0.18
2013-10-6,60.0,52.5,46.0,56.0,45.9,39.0,93,79,52,29.81,29.73,9,4,22,0.10
2013-10-7,67.0,53.2,43.0,49.0,45.7,41.0,96,78,50,30.12,29.80,8,3,15,0.01
2013-10-8,75.0,59.6,48.0,52.0,47.0,44.0,88,67,37,30.22,30.11,6,2,12,0.00
2013-10-9,74.0,58.3,43.0,50.0,45.4,40.0,94,66,35,30.22,30.11,9,2,13,0.00
2013-10-10,76.0,62.2,50.0,59.0,52.2,46.0,90,71,48,30.16,30.03,5,1,11,0.00
2013-10-11,78.0,65.1,54.0,61.0,55.5,51.0,91,73,46,30.06,29.93,12,5,19,0.00
2013-10-12,71.0,60.8,54.0,64.0,53.4,-99.9,93,79,58,30.19,29.96,9,3,15,0.01
2013-10-13,66.0,55.0,45.0,44.0,37.7,32.0,75,55,28,30.39,30.18,6,2,12,0.01
2013-10-14,67.0,52.7,40.0,46.0,38.8,32.0,90,63,28,30.39,30.13,12,3,17,0.00
2013-10-15,63.0,57.6,52.0,62.0,52.8,43.0,96,84,70,30.12,29.83,10,6,17,0.15
2013-10-16,54.0,49.0,43.0,48.0,43.5,40.0,90,81,71,29.99,29.91,8,3,16,0.01
2013-10-17,58.0,49.3,45.0,47.0,42.9,39.0,95,80,51,29.98,29.88,9,2,22,0.09
2013-10-18,52.0,45.7,40.0,43.0,40.2,38.0,93,81,64,30.02,29.91,7,2,15,0.01
2013-10-19,54.0,45.7,40.0,41.0,37.0,-99.9,95,75,51,30.00,29.88,11,4,22,0.18
2013-10-20,68.0,52.6,39.0,46.0,41.2,35.0,89,67,41,29.92,29.78,18,8,28,0.01
2013-10-21,55.0,46.2,34.0,46.0,36.3,25.0,86,69,49,30.04,29.85,11,4,19,0.00
2013-10-22,45.0,36.1,29.0,40.0,31.9,24.0,96,85,70,30.04,29.87,9,3,14,0.49
2013-10-23,44.0,37.7,33.0,35.0,32.5,29.0,96,83,58,30.10,29.95,7,3,13,0.28
2013-10-24,40.0,36.4,33.0,34.0,28.7,24.0,94,74,55,30.36,30.08,8,3,17,0.01
2013-10-25,51.0,42.7,27.0,32.0,29.6,23.0,87,61,43,30.47,30.18,9,5,20,0.00
2013-10-26,56.0,44.3,37.0,40.0,31.2,-99.9,75,62,40,30.19,29.94,13,6,22,0.00
2013-10-27,55.0,42.7,32.0,33.0,30.4,27.0,86,64,41,30.11,30.02,8,2,14,0.00
2013-10-28,61.0,45.8,32.0,41.0,31.6,-99.9,90,63,36,30.32,30.07,7,2,12,0.00
2013-10-29,55.0,45.9,36.0,49.0,41.7,34.0,96,86,63,30.32,30.14,8,4,13,0.04
2013-10-30,63.0,56.4,50.0,62.0,55.4,49.0,98,98,96,30.14,29.83,15,6,22,1.23
2013-10-31,63.0,58.3,46.0,62.0,57.0,44.0,98,95,92,29.83,29.27,16,9,30,0.93
2013-11-1,49.0,46.5,43.0,45.0,43.3,41.0,96,88,76,29.80,29.49,11,4,20,0.09
2013-11-2,47.0,41.8,37.0,42.0,36.7,-99.9,94,85,71,30.17,29.79,9,3,16,0.01
2013-11-3,52.0,41.4,32.0,41.0,35.4,30.0,94,80,56,30.33,30.16,10,4,15,0.00
2013-11-4,56.0,47.8,41.0,46.0,41.3,36.0,85,78,64,30.26,30.14,16,9,21,0.00
2013-11-5,55.0,51.5,49.0,52.0,48.1,45.0,96,88,83,30.29,29.99,14,7,22,0.04
2013-11-6,55.0,47.6,35.0,54.0,45.3,30.0,96,91,84,30.20,29.85,15,8,23,0.51
2013-11-7,47.0,36.5,30.0,37.0,31.1,26.0,89,81,60,30.33,30.21,10,3,19,0.01
2013-11-8,49.0,39.9,29.0,35.0,32.1,26.0,92,75,55,30.37,30.07,14,5,24,0.00
2013-11-9,61.0,48.7,41.0,44.0,36.8,-99.9,80,66,44,30.18,29.98,13,7,24,0.00
2013-11-10,48.0,39.4,33.0,37.0,31.8,28.0,85,75,54,30.41,30.19,8,3,13,0.00
2013-11-11,51.0,39.4,26.0,41.0,34.2,22.0,96,82,66,30.50,30.13,12,6,20,0.04
2013-11-12,29.0,23.1,18.0,23.0,18.7,15.0,88,83,73,30.76,30.50,9,4,15,0.02
2013-11-13,38.0,27.1,16.0,27.0,20.8,13.0,90,78,60,30.70,30.29,14,6,20,0.00
2013-11-14,51.0,37.7,28.0,31.0,26.6,22.0,78,65,43,30.29,30.04,15,11,23,0.00
2013-11-15,49.0,42.0,35.0,40.0,34.4,28.0,91,75,61,30.05,29.96,11,6,16,0.00
2013-11-16,59.0,51.5,39.0,57.0,48.2,-99.9,97,91,81,29.98,29.63,17,11,26,0.18
2013-11-17,69.0,62.5,58.0,65.0,60.7,56.0,97,93,85,29.63,29.27,21,13,36,0.18
2013-11-19,42.0,34.1,29.0,32.0,28.9,26.0,90,82,65,30.33,30.29,9,4,15,0.00
2013-11-20,42.0,35.5,28.0,39.0,31.9,26.0,91,87,77,30.29,30.06,18,8,26,0.16
2013-11-21,48.0,45.1,41.0,46.0,43.2,38.0,98,93,88,30.22,30.13,8,3,13,0.40
2013-11-22,45.0,36.6,29.0,44.0,34.6,26.0,98,92,85,30.52,30.19,11,5,19,0.07
2013-11-23,29.0,21.6,14.0,26.0,15.1,-99.9,91,78,64,30.76,30.49,13,6,25,0.01
2013-11-24,27.0,17.9,10.0,16.0,10.5,6.0,84,73,45,30.81,30.48,7,3,11,0.00
2013-11-25,31.0,27.2,20.0,26.0,20.7,14.0,84,76,68,30.49,30.17,12,6,19,0.00
2013-11-26,34.0,28.0,18.0,29.0,21.8,9.0,87,78,64,30.20,30.07,12,4,24,0.00
2013-11-27,27.0,18.2,12.0,13.0,9.7,6.0,81,70,53,30.35,30.19,10,5,18,0.00
2013-11-28,37.0,25.8,17.0,22.0,17.4,12.0,84,71,53,30.54,30.26,11,5,19,0.00
2013-11-29,37.0,26.4,15.0,24.0,19.5,12.0,88,76,57,30.67,30.44,9,3,15,0.00
2013-11-30,50.0,35.6,26.0,34.0,27.1,-99.9,87,74,54,30.44,30.12,10,5,16,0.00
2013-12-1,47.0,36.5,29.0,36.0,31.2,27.0,94,82,60,30.13,29.99,4,1,9,0.00
2013-12-2,43.0,36.4,30.0,38.0,33.8,28.0,96,90,79,29.99,29.73,9,5,14,0.00
2013-12-3,48.0,43.5,36.0,47.0,42.5,35.0,98,97,96,29.74,29.67,10,5,14,0.00
2013-12-4,57.0,49.8,41.0,56.0,48.7,37.0,99,96,88,29.77,29.51,12,7,20,0.01
2013-12-5,40.0,26.0,20.0,37.0,20.7,13.0,91,80,72,30.30,29.77,10,6,20,0.01
2013-12-6,20.0,17.2,12.0,14.0,11.5,6.0,81,77,71,30.61,30.29,9,6,15,0.00
2013-12-7,21.0,12.8,6.0,10.0,5.2,-99.9,85,74,55,30.76,30.60,7,4,15,0.00
2013-12-8,25.0,21.1,12.0,24.0,18.4,8.0,95,89,80,30.62,30.03,13,7,21,0.00
2013-12-9,24.0,18.3,8.0,22.0,13.5,1.0,93,81,69,30.30,30.04,10,5,19,0.00
2013-12-10,25.0,14.0,2.0,16.0,6.9,-3.0,86,73,59,30.38,30.17,13,4,25,0.00
2013-12-11,21.0,15.1,2.0,18.0,9.6,-5.0,87,79,70,30.67,30.32,10,4,20,0.00
2013-12-12,28.0,13.4,-1.0,18.0,6.8,-5.0,83,75,62,30.66,30.30,12,4,19,0.00
2013-12-13,37.0,26.3,16.0,29.0,21.9,12.0,96,84,69,30.29,30.07,9,4,14,0.00
2013-12-14,31.0,28.4,22.0,30.0,26.1,-99.9,97,95,91,30.09,29.88,10,6,19,0.05
2013-12-15,22.0,16.0,11.0,20.0,12.9,8.0,92,88,81,30.17,30.05,8,4,17,0.01
2013-12-16,21.0,16.8,13.0,20.0,15.2,11.0,95,92,90,30.18,30.06,9,4,13,0.00
2013-12-17,29.0,23.2,19.0,27.0,20.8,15.0,96,90,76,30.22,30.08,9,4,19,0.06
2013-12-18,37.0,23.5,12.0,34.0,18.8,9.0,87,82,77,30.26,29.94,14,7,23,0.06
2013-12-19,39.0,36.8,35.0,38.0,35.0,33.0,97,93,88,29.96,29.80,12,6,21,0.07
2013-12-20,51.0,39.9,31.0,51.0,39.1,31.0,99,98,97,29.84,29.70,7,2,14,0.09
2013-12-21,33.0,30.6,30.0,32.0,29.0,-99.9,98,97,97,29.87,29.56,7,2,10,0.06
2013-12-22,33.0,30.1,24.0,32.0,29.3,22.0,98,96,91,30.20,29.58,7,3,15,0.01
2013-12-23,24.0,15.4,3.0,22.0,11.9,-2.0,93,86,79,30.56,30.20,10,6,18,0.01
2013-12-24,19.0,10.0,2.0,15.0,5.7,-2.0,86,82,80,30.66,30.42,12,5,19,0.00
2013-12-25,29.0,24.5,19.0,27.0,21.2,14.0,94,87,81,30.43,30.21,10,6,19,0.00
2013-12-26,35.0,28.4,18.0,30.0,24.1,15.0,92,84,74,30.39,30.22,11,5,18,0.00
2013-12-27,45.0,34.5,25.0,36.0,30.0,22.0,92,84,66,30.37,30.21,11,5,17,0.00
2013-12-28,50.0,38.9,34.0,41.0,32.3,-99.9,90,80,66,30.20,29.91,12,6,20,0.00
2013-12-29,36.0,27.4,12.0,32.0,24.9,8.0,95,90,83,30.24,29.82,10,6,21,0.00
2013-12-30,17.0,10.1,3.0,11.0,5.9,0.0,87,82,71,30.40,30.24,8,3,15,0.00
2013-12-31,26.0,18.2,11.0,21.0,14.0,8.0,88,84,74,30.45,30.25,8,3,13,0.00
2014-1-1,24.0,20.2,17.0,22.0,17.9,14.0,93,90,87,30.27,30.14,11,8,17,0.00
2014-1-2,17.0,12.4,3.0,15.0,10.1,0.0,92,90,85,30.49,30.11,12,8,19,0.00